User: anonymous   Login
Location: Unspecified
(0.0000°N, 0.0000°E)
Time: 10:18:09
(UTC+00:00)
Language:

Kosmos-1553 - Orbit

View from above orbital plane
View from above orbital plane
View from above satellite
View from above satellite

Ground track
Ground track

The orbit data is extracted from the following two-line orbital elements,

1 14973U 84046A   17294.93980028 +.00000003 +00000-0 -12853-4 0  9995
2 14973 082.9352 077.0448 0033541 093.9397 022.5550 13.75311906677297
Epoch (UTC): 21 October 2017 22:33:18
Eccentricity: 0.0033541
inclination: 82.9352°
perigee height: 956 km
apogee height: 1005 km
right ascension of ascending node: 77.0448°
argument of perigee: 93.9397°
revolutions per day: 13.75311906
mean anomaly at epoch: 22.5550°
orbit number at epoch: 67729

The dashed part of the orbit path shows where the satellite is in the earth's shadow,  

DLR